This is the latest recevied weather packets stored in our database for station/object KF6FPU-15. If no packets are shown the sender has not sent any weather packets the latest 10 day(s).
| Time | Temp. | Humidity | Pressure | Rain* | Wind** | Luminosity | Snow |
|---|---|---|---|---|---|---|---|
| 1788116582 | 32.78° C | 18% | 1013.2 hPa | - | - | - | - |
| 1788115982 | 32.78° C | 18% | 1013.2 hPa | - | - | - | - |
| 1788115398 | 32.22° C | 18% | 1013.2 hPa | - | - | - | - |
| 1788114782 | 32.22° C | 18% | 1013.4 hPa | - | - | - | - |
| 1788114182 | 32.22° C | 19% | 1013.4 hPa | - | - | - | - |
| 1788112982 | 31.67° C | 19% | 1013.4 hPa | - | - | - | - |
| 1788112382 | 31.67° C | 19% | 1013.5 hPa | - | - | - | - |
| 1788111782 | 32.22° C | 19% | 1013.6 hPa | - | - | - | - |
| 1788111182 | 32.22° C | 19% | 1013.6 hPa | - | - | - | - |
| 1788110582 | 31.67° C | 19% | 1013.7 hPa | - | - | - | - |
| 1788109982 | 31.67° C | 19% | 1013.7 hPa | - | - | - | - |
| 1788109392 | 31.11° C | 19% | 1013.7 hPa | - | - | - | - |
| 1788108782 | 31.11° C | 19% | 1013.8 hPa | - | - | - | - |
| 1788108182 | 30.56° C | 19% | 1013.7 hPa | - | - | - | - |
| 1788107582 | 30.56° C | 19% | 1013.6 hPa | - | - | - | - |
| 1788106382 | 30° C | 19% | 1013.6 hPa | - | - | - | - |
| 1788105782 | 30° C | 20% | 1013.5 hPa | - | - | - | - |
| 1788105182 | 30° C | 20% | 1013.6 hPa | - | - | - | - |
| 1788104582 | 30° C | 19% | 1013.7 hPa | - | - | - | - |
| 1788103982 | 29.44° C | 19% | 1013.7 hPa | - | - | - | - |
| 1788103382 | 29.44° C | 20% | 1013.7 hPa | - | - | - | - |
| 1788102782 | 29.44° C | 20% | 1013.6 hPa | - | - | - | - |
| 1788102182 | 29.44° C | 19% | 1013.6 hPa | - | - | - | - |
| 1788101582 | 29.44° C | 20% | 1013.5 hPa | - | - | - | - |
| 1788100982 | 29.44° C | 20% | 1013.6 hPa | - | - | - | - |
* Rain since midnight (hover to see other rain measurements)
** Current wind speed in m/s (hover to see current wind gust speed)